| time (UTC) | temp C | wind direction | speed KPH | gust KPH | rain 1hr cm | rain 24hr cm | rain mn cm | humidity % | barometer mb |
| 20260504223203 | 26 | 347 | 1.6 | 4.8 | 0.00 | 0.00 | 0.00 | 67 | 1009.4 |
| 20260504222704 | 26 | 293 | 3.2 | 4.8 | 0.00 | 0.00 | 0.00 | 66 | 1009.6 |
| 20260504222204 | 26 | 33 | 1.6 | 4.8 | 0.00 | 0.00 | 0.00 | 66 | 1009.6 |
| 20260504221204 | 26 | 73 | 1.6 | 3.2 | 0.00 | 0.00 | 0.00 | 66 | 1009.7 |
| 20260504220704 | 26 | 278 | 1.6 | 3.2 | 0.00 | 0.00 | 0.00 | 66 | 1009.7 |
| 20260504220204 | 26 | 325 | 1.6 | 4.8 | 0.00 | 0.00 | 0.00 | 66 | 1009.8 |
| 20260504215704 | 26 | 282 | 3.2 | 4.8 | 0.00 | 0.00 | 0.00 | 65 | 1009.8 |
| 20260504215205 | 26 | 314 | 3.2 | 8.0 | 0.00 | 0.00 | 0.00 | 64 | 1009.7 |
| 20260504214705 | 26 | 317 | 1.6 | 4.8 | 0.00 | 0.00 | 0.00 | 64 | 1009.9 |
| 20260504214205 | 26 | 249 | 1.6 | 4.8 | 0.00 | 0.00 | 0.00 | 63 | 1009.9 |
| 20260504213704 | 26 | 293 | 1.6 | 8.0 | 0.00 | 0.00 | 0.00 | 62 | 1010.0 |
| 20260504213205 | 26 | 302 | 1.6 | 3.2 | 0.00 | 0.00 | 0.00 | 63 | 1009.9 |
| 20260504212204 | 27 | 217 | 1.6 | 8.0 | 0.00 | 0.00 | 0.00 | 61 | 1010.0 |
| 20260504211204 | 27 | 346 | 1.6 | 4.8 | 0.00 | 0.00 | 0.00 | 61 | 1010.1 |
| 20260504210704 | 27 | 329 | 1.6 | 9.7 | 0.00 | 0.00 | 0.00 | 61 | 1010.1 |
| 20260504210204 | 27 | 272 | 1.6 | 8.0 | 0.00 | 0.00 | 0.00 | 61 | 1010.2 |
| 20260504205704 | 27 | 271 | 1.6 | 4.8 | 0.00 | 0.00 | 0.00 | 60 | 1010.4 |
| 20260504205204 | 27 | 263 | 1.6 | 8.0 | 0.00 | 0.00 | 0.00 | 60 | 1010.4 |
| 20260504204704 | 27 | 223 | 1.6 | 4.8 | 0.00 | 0.00 | 0.00 | 59 | 1010.3 |
| 20260504204204 | 27 | 343 | 3.2 | 4.8 | 0.00 | 0.00 | 0.00 | 59 | 1010.4 |
| 20260504202704 | 27 | 340 | 1.6 | 3.2 | 0.00 | 0.00 | 0.00 | 59 | 1010.6 |
| 20260504201705 | 28 | 9 | 1.6 | 8.0 | 0.00 | 0.00 | 0.00 | 57 | 1010.8 |
| 20260504201204 | 28 | 244 | 1.6 | 8.0 | 0.00 | 0.00 | 0.00 | 58 | 1010.9 |
| 20260504200204 | 29 | 269 | 1.6 | 4.8 | 0.00 | 0.00 | 0.00 | 56 | 1011.0 |
| 20260504195704 | 29 | 290 | 1.6 | 4.8 | 0.00 | 0.00 | 0.00 | 55 | 1011.0 |
| 20260504195205 | 29 | 286 | 1.6 | 4.8 | 0.00 | 0.00 | 0.00 | 54 | 1011.0 |
| 20260504194704 | 29 | 300 | 3.2 | 4.8 | 0.00 | 0.00 | 0.00 | 56 | 1011.2 |
| 20260504194204 | 28 | 274 | 1.6 | 4.8 | 0.00 | 0.00 | 0.00 | 58 | 1011.3 |
| 20260504193705 | 28 | 11 | 1.6 | 8.0 | 0.00 | 0.00 | 0.00 | 58 | 1011.2 |
| 20260504193204 | 28 | 251 | 1.6 | 4.8 | 0.00 | 0.00 | 0.00 | 56 | 1011.2 |
| 20260504192705 | 29 | 278 | 1.6 | 4.8 | 0.00 | 0.00 | 0.00 | 54 | 1011.4 |
| 20260504191704 | 28 | 326 | 1.6 | 4.8 | 0.00 | 0.00 | 0.00 | 55 | 1011.5 |
| 20260504191204 | 28 | 300 | 1.6 | 4.8 | 0.00 | 0.00 | 0.00 | 55 | 1011.6 |
| 20260504190704 | 28 | 237 | 1.6 | 8.0 | 0.00 | 0.00 | 0.00 | 58 | 1011.7 |
| 20260504190204 | 28 | 334 | 1.6 | 4.8 | 0.00 | 0.00 | 0.00 | 55 | 1011.7 |
| 20260504185704 | 28 | 350 | 1.6 | 4.8 | 0.00 | 0.00 | 0.00 | 56 | 1011.7 |
| 20260504184204 | 28 | 280 | 1.6 | 4.8 | 0.00 | 0.00 | 0.00 | 55 | 1011.9 |
| 20260504183705 | 28 | 293 | 1.6 | 4.8 | 0.00 | 0.00 | 0.00 | 56 | 1011.8 |
| 20260504183205 | 28 | 294 | 0.0 | 4.8 | 0.00 | 0.00 | 0.00 | 56 | 1011.6 |
| 20260504182704 | 28 | 296 | 1.6 | 4.8 | 0.00 | 0.00 | 0.00 | 54 | 1011.7 |
| 20260504182204 | 28 | 331 | 1.6 | 4.8 | 0.00 | 0.00 | 0.00 | 56 | 1011.9 |
| 20260504180704 | 29 | 269 | 1.6 | 4.8 | 0.00 | 0.00 | 0.00 | 54 | 1012.3 |
| 20260504180204 | 28 | 303 | 1.6 | 8.0 | 0.00 | 0.00 | 0.00 | 56 | 1012.4 |
| 20260504175704 | 28 | 23 | 1.6 | 4.8 | 0.00 | 0.00 | 0.00 | 55 | 1012.4 |
| 20260504175205 | 27 | 308 | 3.2 | 4.8 | 0.00 | 0.00 | 0.00 | 56 | 1012.4 |
| 20260504174703 | 27 | 255 | 1.6 | 4.8 | 0.00 | 0.00 | 0.00 | 58 | 1012.6 |
| 20260504173705 | 27 | 293 | 1.6 | 4.8 | 0.00 | 0.00 | 0.00 | 57 | 1012.5 |
| 20260504173204 | 27 | 292 | 1.6 | 4.8 | 0.00 | 0.00 | 0.00 | 58 | 1012.7 |
| 20260504172704 | 27 | 229 | 1.6 | 4.8 | 0.00 | 0.00 | 0.00 | 57 | 1012.7 |
| 20260504172204 | 27 | 323 | 1.6 | 8.0 | 0.00 | 0.00 | 0.00 | 56 | 1012.9 |
| 20260504171204 | 27 | 171 | 1.6 | 8.0 | 0.00 | 0.00 | 0.00 | 58 | 1013.0 |
| 20260504170704 | 27 | 299 | 3.2 | 4.8 | 0.00 | 0.00 | 0.00 | 54 | 1013.0 |
| 20260504160204 | 25 | 295 | 1.6 | 4.8 | 0.00 | 0.00 | 0.00 | 61 | 1013.9 |
| 20260504150704 | 25 | 316 | 1.6 | 4.8 | 0.00 | 0.00 | 0.00 | 63 | 1013.9 |
| 20260504150203 | 25 | 303 | 1.6 | 8.0 | 0.00 | 0.00 | 0.00 | 62 | 1013.9 |
| 20260504141204 | 22 | 284 | 1.6 | 4.8 | 0.00 | 0.00 | 0.00 | 64 | 1014.1 |
| 20260504140704 | 22 | 352 | 1.6 | 4.8 | 0.00 | 0.00 | 0.00 | 65 | 1013.8 |
| 20260504140204 | 22 | 302 | 1.6 | 3.2 | 0.00 | 0.00 | 0.00 | 66 | 1013.9 |
| 20260504130704 | 18 | 303 | 1.6 | 3.2 | 0.00 | 0.00 | 0.00 | 75 | 1014.0 |
| 20260504130204 | 17 | 266 | 1.6 | 3.2 | 0.00 | 0.00 | 0.00 | 77 | 1013.9 |
| 20260504120204 | 16 | 303 | 0.0 | 3.2 | 0.00 | 0.00 | 0.00 | 82 | 1013.7 |
| 20260504110705 | 15 | 288 | 0.0 | 1.6 | 0.00 | 0.00 | 0.00 | 83 | 1013.6 |
| 20260504110204 | 15 | 267 | 1.6 | 1.6 | 0.00 | 0.00 | 0.00 | 82 | 1013.6 |
| 20260504100204 | 16 | 255 | 1.6 | 3.2 | 0.00 | 0.00 | 0.00 | 78 | 1013.8 |
| 20260504081704 | 17 | 302 | 1.6 | 3.2 | 0.00 | 0.00 | 0.00 | 72 | 1014.4 |
| 20260504081204 | 17 | 294 | 1.6 | 4.8 | 0.00 | 0.00 | 0.00 | 72 | 1014.5 |
| 20260504080703 | 17 | 288 | 1.6 | 3.2 | 0.00 | 0.00 | 0.00 | 72 | 1014.6 |
| 20260504080204 | 17 | 280 | 1.6 | 1.6 | 0.00 | 0.00 | 0.00 | 72 | 1014.7 |
| 20260504070204 | 18 | 276 | 1.6 | 3.2 | 0.00 | 0.00 | 0.00 | 68 | 1015.4 |
| 20260504060204 | 18 | 304 | 0.0 | 3.2 | 0.00 | 0.00 | 0.00 | 67 | 1015.9 |
| 20260504050706 | 18 | 257 | 1.6 | 3.2 | 0.00 | 0.00 | 0.00 | 65 | 1016.2 |
| 20260504045204 | 18 | 284 | 1.6 | 3.2 | 0.00 | 0.00 | 0.00 | 62 | 1016.3 |
| 20260504044705 | 18 | 293 | 1.6 | 3.2 | 0.00 | 0.00 | 0.00 | 63 | 1016.3 |
| 20260504044205 | 18 | 263 | 0.0 | 3.2 | 0.00 | 0.00 | 0.00 | 64 | 1016.3 |
| 20260504043204 | 18 | 271 | 1.6 | 3.2 | 0.00 | 0.00 | 0.00 | 63 | 1016.4 |
| 20260504042705 | 18 | 285 | 0.0 | 3.2 | 0.00 | 0.00 | 0.00 | 64 | 1016.4 |
| 20260504042204 | 18 | 311 | 0.0 | 3.2 | 0.00 | 0.00 | 0.00 | 64 | 1016.5 |
| 20260504041704 | 18 | 290 | 1.6 | 3.2 | 0.00 | 0.00 | 0.00 | 63 | 1016.5 |
| 20260504041206 | 18 | 335 | 0.0 | 1.6 | 0.00 | 0.00 | 0.00 | 64 | 1016.5 |
| 20260504040704 | 18 | 285 | 1.6 | 3.2 | 0.00 | 0.00 | 0.00 | 64 | 1016.4 |
| 20260504040204 | 19 | 289 | 1.6 | 3.2 | 0.00 | 0.00 | 0.00 | 63 | 1016.4 |
| 20260504035704 | 19 | 309 | 1.6 | 3.2 | 0.00 | 0.00 | 0.00 | 63 | 1016.4 |
| 20260504035204 | 19 | 248 | 1.6 | 3.2 | 0.00 | 0.00 | 0.00 | 62 | 1016.4 |
| 20260504034704 | 19 | 308 | 0.0 | 3.2 | 0.00 | 0.00 | 0.00 | 63 | 1016.5 |
| 20260504034203 | 19 | 297 | 1.6 | 3.2 | 0.00 | 0.00 | 0.00 | 62 | 1016.5 |
| 20260504033704 | 19 | 296 | 1.6 | 3.2 | 0.00 | 0.00 | 0.00 | 62 | 1016.5 |
| 20260504033204 | 20 | 305 | 0.0 | 3.2 | 0.00 | 0.00 | 0.00 | 62 | 1016.5 |
| 20260504032204 | 20 | 260 | 1.6 | 3.2 | 0.00 | 0.00 | 0.00 | 62 | 1016.4 |
| 20260504031704 | 20 | 338 | 1.6 | 3.2 | 0.00 | 0.00 | 0.00 | 62 | 1016.3 |
| 20260504031204 | 20 | 275 | 1.6 | 3.2 | 0.00 | 0.00 | 0.00 | 61 | 1016.4 |
| 20260504030704 | 20 | 258 | 1.6 | 3.2 | 0.00 | 0.00 | 0.00 | 61 | 1016.3 |
| 20260504030204 | 20 | 291 | 0.0 | 4.8 | 0.00 | 0.00 | 0.00 | 61 | 1016.2 |
| 20260504025704 | 20 | 283 | 0.0 | 1.6 | 0.00 | 0.00 | 0.00 | 60 | 1016.2 |
| 20260504025204 | 20 | 296 | 1.6 | 3.2 | 0.00 | 0.00 | 0.00 | 60 | 1016.2 |
| 20260504024704 | 20 | 334 | 0.0 | 3.2 | 0.00 | 0.00 | 0.00 | 60 | 1016.2 |
| 20260504024204 | 20 | 284 | 1.6 | 4.8 | 0.00 | 0.00 | 0.00 | 59 | 1016.2 |
| 20260504023704 | 20 | 253 | 1.6 | 3.2 | 0.00 | 0.00 | 0.00 | 59 | 1016.2 |
| 20260504022704 | 20 | 298 | 1.6 | 3.2 | 0.00 | 0.00 | 0.00 | 59 | 1016.3 |
| 20260504022204 | 21 | 306 | 1.6 | 8.0 | 0.00 | 0.00 | 0.00 | 59 | 1016.2 |
| 20260504021704 | 21 | 281 | 0.0 | 3.2 | 0.00 | 0.00 | 0.00 | 58 | 1016.1 |
| 20260504020206 | 21 | 207 | 1.6 | 3.2 | 0.00 | 0.00 | 0.00 | 57 | 1016.1 |
| 20260504015704 | 21 | 240 | 1.6 | 4.8 | 0.00 | 0.00 | 0.00 | 56 | 1016.1 |
| 20260504015204 | 21 | 274 | 1.6 | 9.7 | 0.00 | 0.00 | 0.00 | 56 | 1016.1 |
| 20260504014704 | 21 | 267 | 3.2 | 8.0 | 0.00 | 0.00 | 0.00 | 56 | 1016.1 |
| 20260504014204 | 21 | 346 | 1.6 | 3.2 | 0.00 | 0.00 | 0.00 | 55 | 1016.1 |
| 20260504013704 | 21 | 335 | 1.6 | 4.8 | 0.00 | 0.00 | 0.00 | 55 | 1016.0 |
| 20260504013204 | 21 | 295 | 1.6 | 4.8 | 0.00 | 0.00 | 0.00 | 54 | 1016.0 |
| 20260504012204 | 22 | 267 | 1.6 | 4.8 | 0.00 | 0.00 | 0.00 | 53 | 1015.9 |
| 20260504011704 | 22 | 213 | 1.6 | 8.0 | 0.00 | 0.00 | 0.00 | 52 | 1015.9 |
| 20260504011204 | 22 | 273 | 1.6 | 8.0 | 0.00 | 0.00 | 0.00 | 52 | 1015.9 |
| 20260504010704 | 22 | 270 | 1.6 | 8.0 | 0.00 | 0.00 | 0.00 | 52 | 1015.8 |
| 20260504010204 | 22 | 290 | 1.6 | 4.8 | 0.00 | 0.00 | 0.00 | 52 | 1015.8 |
| 20260504005704 | 22 | 279 | 1.6 | 4.8 | 0.00 | 0.00 | 0.00 | 52 | 1015.7 |
| 20260504005204 | 22 | 291 | 1.6 | 3.2 | 0.00 | 0.00 | 0.00 | 52 | 1015.8 |
| 20260504004704 | 22 | 289 | 1.6 | 3.2 | 0.00 | 0.00 | 0.00 | 52 | 1015.8 |
| 20260504004203 | 22 | 279 | 1.6 | 4.8 | 0.00 | 0.00 | 0.00 | 51 | 1015.8 |
| 20260504003704 | 22 | 292 | 1.6 | 3.2 | 0.00 | 0.00 | 0.00 | 50 | 1015.8 |
| 20260504003204 | 23 | 281 | 1.6 | 3.2 | 0.00 | 0.00 | 0.00 | 50 | 1015.7 |
| 20260504002705 | 23 | 353 | 1.6 | 4.8 | 0.00 | 0.00 | 0.00 | 50 | 1015.8 |
| 20260504001706 | 23 | 304 | 1.6 | 4.8 | 0.00 | 0.00 | 0.00 | 50 | 1015.7 |
| 20260504001205 | 23 | 274 | 1.6 | 4.8 | 0.00 | 0.00 | 0.00 | 49 | 1015.7 |
| 20260504000704 | 23 | 31 | 1.6 | 8.0 | 0.00 | 0.00 | 0.00 | 49 | 1015.8 |
| 20260504000204 | 23 | 324 | 1.6 | 8.0 | 0.00 | 0.00 | 0.00 | 48 | 1015.8 |
| 20260503235704 | 23 | 288 | 1.6 | 4.8 | 0.00 | 0.00 | 0.00 | 48 | 1016.0 |
| 20260503235204 | 23 | 5 | 1.6 | 8.0 | 0.00 | 0.00 | 0.00 | 48 | 1015.8 |
| 20260503234703 | 24 | 243 | 1.6 | 8.0 | 0.00 | 0.00 | 0.00 | 48 | 1015.8 |
| 20260503234204 | 24 | 238 | 1.6 | 4.8 | 0.00 | 0.00 | 0.00 | 47 | 1015.9 |
| 20260503233704 | 25 | 313 | 1.6 | 8.0 | 0.00 | 0.00 | 0.00 | 46 | 1015.9 |
| 20260503233203 | 25 | 285 | 1.6 | 4.8 | 0.00 | 0.00 | 0.00 | 46 | 1016.0 |
| 20260503232704 | 25 | 248 | 1.6 | 9.7 | 0.00 | 0.00 | 0.00 | 44 | 1016.1 |
| 20260503232204 | 26 | 273 | 1.6 | 4.8 | 0.00 | 0.00 | 0.00 | 44 | 1016.0 |
| 20260503231704 | 26 | 324 | 1.6 | 4.8 | 0.00 | 0.00 | 0.00 | 44 | 1016.0 |
| 20260503231204 | 26 | 268 | 1.6 | 4.8 | 0.00 | 0.00 | 0.00 | 44 | 1015.9 |
| 20260503230704 | 26 | 269 | 1.6 | 8.0 | 0.00 | 0.00 | 0.00 | 45 | 1015.9 |
| 20260503225704 | 26 | 305 | 1.6 | 3.2 | 0.00 | 0.00 | 0.00 | 44 | 1016.1 |
| 20260503225204 | 26 | 295 | 1.6 | 3.2 | 0.00 | 0.00 | 0.00 | 43 | 1016.1 |
| 20260503224704 | 26 | 266 | 1.6 | 4.8 | 0.00 | 0.00 | 0.00 | 43 | 1016.1 |
| 20260503224203 | 26 | 261 | 1.6 | 4.8 | 0.00 | 0.00 | 0.00 | 42 | 1016.1 |
| 20260503223704 | 26 | 327 | 0.0 | 4.8 | 0.00 | 0.00 | 0.00 | 42 | 1016.1 |